Home   Weather   Antwerp   Past weeks

Flag for Belgium Past Weather in Antwerp, Belgium — Yesterday and Last 2 Weeks

Now
45 °F

Fog.


Feels Like: 41 °F
Forecast: 45 / 51 °F
Wind: 7 mph from Southwest

Location: Antwerp / Deurne

Current Time: Dec 10, 2016 at 1:57:12 pm

Latest Report: Dec 10, 2016 at 12:50 pm


Visibility: 1 mi

Pressure: 30.24 "Hg

Humidity: 93%

Dew Point: 43 °F

Location of AntwerpLocation

Past Weather in Antwerp — Graph

°F

Antwerp Temperature Yesterday

Maximum temperature yesterday: 54 °F (at 2:50 pm)
Minimum temperature yesterday: 46 °F (at 8:20 am)
Average temperature yesterday: 49 °F

High & Low Weather Summary for the Past Weeks

 TemperatureHumidityPressure
High54 °F (Dec 9, 2:50 pm)100% (Nov 26, 10:20 pm)30.57 "Hg (Nov 26, 10:20 pm)
Low19 °F (Nov 30, 1:50 am)48% (Nov 29, 2:50 pm)30.09 "Hg (Nov 25, 1:20 pm)
Average39 °F81%30.33 "Hg
* Reported Nov 25 12:20 pm — Dec 10 12:20 pm, Antwerp, Weather by CustomWeather, © 2016

Note: Actual official high and low records may vary slightly from our data, if they occured in-between our weather recording intervals... More about our weather records

Advertising

Antwerp Weather History for the Previous 24 Hours

Scroll right to see more
 ConditionsComfort  
Time TempWeatherWind HumidityBarometerVisibility
12:20 pm
Sat, Dec 10
45 °FFog.7 mph93%30.24 "Hg1 mi
11:50 am43 °FFog.7 mph100%30.24 "Hg1 mi
11:20 am43 °FFog.8 mph93%30.27 "Hg1 mi
10:50 am43 °FFog.8 mph93%30.27 "Hg1 mi
10:20 am43 °FFog.9 mph93%30.27 "Hg2 mi
9:50 am43 °FFog.7 mph93%30.24 "Hg2 mi
9:20 am43 °FPartly sunny.8 mph87%30.24 "Hg6 mi
8:50 am43 °FPartly sunny.7 mph87%30.24 "HgN/A
8:20 am43 °FClear.9 mph87%30.24 "Hg10 mi
7:50 am43 °FClear.6 mph87%30.24 "Hg10 mi
7:20 am43 °FClear.7 mph87%30.24 "Hg10 mi
6:50 am43 °FClear.7 mph93%30.24 "Hg10 mi
6:20 am45 °FPassing clouds.7 mph87%30.24 "HgN/A
5:50 am45 °FClear.10 mph87%30.24 "Hg10 mi
5:20 am45 °FClear.9 mph87%30.24 "Hg10 mi
4:50 am45 °FClear.8 mph87%30.24 "Hg6 mi
4:20 am45 °FClear.8 mph87%30.24 "Hg6 mi
3:50 am45 °FClear.8 mph87%30.27 "Hg10 mi
3:20 am45 °FClear.9 mph87%30.27 "Hg6 mi
2:50 am45 °FClear.9 mph87%30.27 "Hg6 mi
2:20 am45 °FClear.9 mph87%30.27 "Hg6 mi
1:50 am45 °FClear.8 mph87%30.27 "Hg6 mi
1:20 am46 °FClear.8 mph82%30.30 "Hg5 mi
12:50 am46 °FClear.8 mph82%30.30 "Hg5 mi
12:20 am46 °FClear.8 mph82%30.30 "Hg4 mi
11:50 pm
Fri, Dec 9
46 °FClear.8 mph82%30.30 "Hg4 mi
11:20 pm46 °FClear.8 mph87%30.30 "Hg4 mi
10:50 pm46 °FClear.8 mph87%30.30 "Hg4 mi
10:20 pm46 °FClear.8 mph87%30.33 "Hg4 mi
9:50 pm46 °FClear.9 mph87%30.33 "Hg4 mi
9:20 pm46 °FClear.12 mph87%30.33 "Hg4 mi
8:50 pm46 °FClear.9 mph93%30.33 "Hg4 mi
8:20 pm48 °FClear.9 mph87%30.33 "Hg4 mi
7:50 pm48 °FClear.8 mph87%30.33 "Hg6 mi
7:20 pm48 °FClear.12 mph87%30.33 "Hg6 mi
6:50 pm48 °FPassing clouds.9 mph82%30.33 "HgN/A
6:20 pm48 °FClear.6 mph82%30.36 "Hg10 mi
5:50 pm50 °FClear.7 mph76%30.36 "Hg10 mi
5:20 pm50 °FPassing clouds.6 mph76%30.36 "HgN/A
4:50 pm52 °FPassing clouds.7 mph72%30.33 "HgN/A
4:20 pm52 °FPassing clouds.7 mph72%30.33 "HgN/A
3:50 pm54 °FSunny.8 mph67%30.33 "Hg10 mi
3:20 pm54 °FSunny.9 mph72%30.33 "Hg10 mi
2:50 pm54 °FSunny.8 mph72%30.36 "Hg10 mi
2:20 pm52 °FSunny.8 mph77%30.36 "Hg10 mi
1:50 pm52 °FScattered clouds.10 mph77%30.36 "HgN/A
1:20 pm52 °FScattered clouds.8 mph77%30.36 "HgN/A
Weather by CustomWeather, © 2016

See weather overviewHow to use our weather pages